Location: Observatoire Alphonse-Tardif � St-N�r�e
(46.7267°N, 70.7033°W)
Time: 16:40:35
(UTC-04:00)

Tiangong 2 - Visible Passes

Search period start: 24 June 2018 00:00
Search period end: 04 July 2018 00:00
Orbit: 385 x 396 km, 42.8° (Epoch: 24 June)

Date Brightness Start Highest point End Pass type
(mag) Time Alt. Az. Time Alt. Az. Time Alt. Az.
28 Jun 3.5 03:39:22 10° S 03:40:29 11° SSE 03:41:38 10° SE visible
30 Jun 2.9 03:21:02 16° S 03:22:02 18° SSE 03:24:18 10° ESE visible
01 Jul 3.7 02:25:56 11° SE 02:25:56 11° SE 02:26:09 10° SE visible
01 Jul 2.1 03:58:16 11° SW 04:01:03 32° SSE 04:03:57 10° ESE visible
02 Jul 2.3 03:03:09 24° S 03:03:39 25° SSE 03:06:22 10° ESE visible
03 Jul 3.5 02:08:03 13° ESE 02:08:03 13° ESE 02:08:40 10° ESE visible
03 Jul 1.7 03:40:23 14° WSW 03:42:45 38° S 03:45:46 10° ESE visible
